Regional Weather Roundup
Issued by NWS

Home | Current Version | Previous Version | Graphics & Text | Print | Product List | Glossary On
Versions: 1 2 3 4 5 6 7 8 9 10 11 12 13 14 15 16 17 18 19 20 21 22 23 24 25 26 27 28 29 30 31 32 33 34 35 36 37 38 39 40 41 42 43 44 45 46 47 48 49 50
131
ASUS43 KIND 250559
RWRIN

WEATHER ROUNDUP FOR INDIANA
NATIONAL WEATHER SERVICE INDIANAPOLIS IN
200 AM EDT SUN JUN 25 2017

NOTE: "FAIR" INDICATES FEW OR NO CLOUDS BELOW 12,000 FEET WITH NO
SIGNIFICANT WEATHER AND/OR OBSTRUCTIONS TO VISIBILITY.

* - STATION DOES NOT REPORT WEATHER SUCH AS PRECIPITATION OR FOG.

+ - STATION NOT QUALITY CONTROLLED BY THE NATIONAL WEATHER SERVICE.
    USE DATA WITH CAUTION...ESPECIALLY DEWPOINT AND RELATIVE
    HUMIDITY OBSERVATIONS.

INZ001>003-010>013-019-020-250700-
NORTHWEST INDIANA

CITY           SKY/WX    TMP DP  RH WIND       PRES   REMARKS
KNOX *+        MOCLDY    55  37  50 SW5       30.06F
MICHIGAN CITY+ MOCLDY    55  50  82 CALM      30.06S
MONTICELLO +   CLEAR     57  49  76 SW7       30.08F
6HR MIN TEMP:  56; 6HR MAX TEMP:  71;


$$

LMZ046-743>745-250700-
SOUTHERN LAKE MICHIGAN

STATION/POSITION TIME  TEMP    WIND        PRES    WAVE
                       AIR SEA DIR/SP/G            HT
                 (UTC) (F)     (DEG/KT/KT) (MB)    (FT)
BURNS HARBOR     0540   65     230/ 12/ 14 1018.3S
MICHIGAN CITY    0530   65     280/  4/  5   N/A
5NW MICH CITY    0550   65 67  280/  4/  6   N/A     2

$$

INZ004-005-014>016-021>024-250700-
NORTH CENTRAL INDIANA

CITY           SKY/WX    TMP DP  RH WIND       PRES   REMARKS
GOSHEN         PTCLDY    56  47  71 SW7       30.05F
6HR MIN TEMP:  56; 6HR MAX TEMP:  71;

SOUTH BEND     PTCLDY    57  49  74 SW6       30.06F
6HR MIN TEMP:  57; 6HR MAX TEMP:  69;


$$

INZ006>009-017-018-025>027-250700-
NORTHEAST INDIANA

CITY           SKY/WX    TMP DP  RH WIND       PRES   REMARKS
FORT WAYNE     PTCLDY    57  50  77 W5        30.08F
6HR MIN TEMP:  57; 6HR MAX TEMP:  72;

KENDALLVILLE + PTCLDY    57  49  72 SW3       30.06F

$$

INZ028-029-035-036-043>045-051>053-250700-
WEST CENTRAL INDIANA

CITY           SKY/WX    TMP DP  RH WIND       PRES   REMARKS
CRAWFORDSVL +  CLEAR     52  52 100 CALM      30.12F
6HR MIN TEMP:  52; 6HR MAX TEMP:  69;

GREENCASTLE +  CLEAR     54  52  94 CALM      30.14F
LAFAYETTE      CLEAR     53  52  96 CALM      30.10F
6HR MIN TEMP:  52; 6HR MAX TEMP:  70;

TERRE HAUTE    CLEAR     56  53  90 CALM      30.13F
6HR MIN TEMP:  56; 6HR MAX TEMP:  74;


$$

INZ030>032-037>040-046>048-054>057-064-065-250700-
CENTRAL INDIANA

CITY           SKY/WX    TMP DP  RH WIND       PRES   REMARKS
GREENWOOD *+   CLEAR     59  50  72 W5        30.14S
INDIANAPOLIS   CLEAR     59  48  67 SW6       30.12F
6HR MIN TEMP:  59; 6HR MAX TEMP:  72;

-EAGLE CREEK   CLEAR     61  49  64 W5        30.11F
6HR MIN TEMP:  61; 6HR MAX TEMP:  72;

KOKOMO +       CLEAR     57  49  74 SW7       30.11F
6HR MIN TEMP:  57; 6HR MAX TEMP:  71;

MT COMFORT *+  CLEAR     57  48  72 W7        30.13S
SHELBYVILLE    PTCLDY    61  49  64 W6        30.12S
6HR MIN TEMP:  61; 6HR MAX TEMP:  74;


$$

INZ033-034-041-042-049-050-058-059-250700-
EAST CENTRAL INDIANA

CITY           SKY/WX    TMP DP  RH WIND       PRES   REMARKS
MUNCIE         CLEAR     61  48  62 W8        30.10F
6HR MIN TEMP:  61; 6HR MAX TEMP:  73;

RICHMOND +     CLEAR     55  50  82 W6        30.12S

$$

INZ060-061-067>069-081>083-085>088-250700-
SOUTHWEST INDIANA

CITY           SKY/WX    TMP DP  RH WIND       PRES   REMARKS
EVANSVILLE     CLEAR     62  52  69 W3        30.16F
6HR MIN TEMP:  60; 6HR MAX TEMP:  75;

HUNTINGBURG *+ CLEAR     62  54  74 NW3       30.15F
6HR MIN TEMP:  59; 6HR MAX TEMP:  74;


$$

INZ062-063-066-070>080-084-089>092-250700-
SOUTH CENTRAL AND SOUTHEAST INDIANA

CITY           SKY/WX    TMP DP  RH WIND       PRES   REMARKS
BLOOMINGTON    CLEAR     56  51  84 CALM      30.14F
6HR MIN TEMP:  56; 6HR MAX TEMP:  73;

MADISON *+     CLEAR     59  55  88 CALM      30.15S
SEYMOUR +      CLEAR     61  54  77 W6        30.13F

$$





USA.gov is the U.S. government's official web portal to all federal, state and local government web resources and services.